Regional Weather Roundup
Issued by NWS Goodland, KS

Home | Current Version | Previous Version | Text Only | Print | Product List | Glossary Off
Versions: 1 2 3 4 5 6 7 8 9 10 11 12 13 14 15 16 17 18 19 20 21 22 23 24 25 26 27 28 29 30 31 32 33 34 35 36 37 38 39 40 41 42 43 44 45 46 47 48 49 50

000
ASUS43 KGLD 021008
RWRGLD

GOODLAND FORECAST AREA HOURLY WEATHER ROUNDUP
NATIONAL WEATHER SERVICE GOODLAND KS
300 AM MST MON MAR 02 2015

...OFFICIAL OBSERVATIONS...

CITY           SKY/WX    TMP DP  RH WIND       PRES   REMARKS
GOODLAND KS    MOCLDY    25  22  88 SE7       30.25F
HILL CITY KS   CLOUDY    29  21  72 CALM      30.37F
IMPERIAL NEB     N/A     28  18  66 S8        30.24F
MCCOOK NEB     CLOUDY    32  20  61 S7        30.30F
AKRON CO       CLOUDY    26  19  74 S18       30.13F WCI  13
BURLINGTON CO  PTCLDY    24  20  84 S7        30.21F
LIMON CO       CLOUDY    22  19  89 S17G24    30.12F WCI   8
$$

...UNOFFICIAL OBSERVATIONS...

CITY           SKY/WX    TMP DP  RH WIND       PRES   REMARKS
COLBY KS       CLOUDY    28  27  93 SE6       30.29F
GOVE KS          N/A     25  32 100 MISG        N/A
LENORA KS        N/A     28  32 100 CALM        N/A
NORTON KS      CLOUDY    30  19  64 S5        30.33F
SHARON SPRINGS   N/A     26  23  89 S9          N/A
KIT CARSON CO    N/A     23  20  87 MISG        N/A
YUMA CO          N/A     28  19  68 S12         N/A  WCI  18
$$



USA.gov is the U.S. government's official web portal to all federal, state and local government web resources and services.